Regional Weather Roundup
Issued by NWS

Home | Current Version | Previous Version | Graphics & Text | Print | Product List | Glossary On
Versions: 1 2 3 4 5 6 7 8 9 10 11 12 13 14 15 16 17 18 19 20 21 22 23 24 25 26 27 28 29 30 31 32 33 34 35 36 37 38 39 40 41 42 43 44 45 46 47 48 49 50
000
ASUS43 KTOP 241859
RWRKS

WEATHER ROUNDUP FOR KANSAS
NATIONAL WEATHER SERVICE GOODLAND KS
200 PM CDT FRI OCT 24 2014

NOTE:  "FAIR" INDICATES FEW OR NO CLOUDS BELOW 12,000 FEET WITH NO
SIGNIFICANT WEATHER AND/OR OBSTRUCTIONS TO VISIBILITY.

KSZ001>006-013>018-027>032-041>047-242000-
NORTHWEST KANSAS

CITY           SKY/WX    TMP DP  RH WIND       PRES   REMARKS
GOODLAND       MOSUNNY   85  29  13 VRB3      30.08F
HAYS           MOSUNNY   82  57  42 S9        30.00F
HILL CITY      FAIR      87  37  17 N6        30.00F
RUSSELL        SUNNY     82  58  43 S10       29.98F
$$

KSZ061>065-074>080-084>089-242000-
SOUTHWEST KANSAS

CITY           SKY/WX    TMP DP  RH WIND       PRES   REMARKS
DODGE CITY     SUNNY     85  49  28 W14       30.05F
ELKHART          N/A     85  42  22 SW6         N/A
GARDEN CITY    MOSUNNY   81  43  26 W12       30.06F
GREAT BEND     SUNNY     81  61  50 W12       30.01F
LIBERAL        SUNNY     84  48  28 SW9       30.09F
$$

KSZ066>073-081>083-090>101-242000-
SOUTHEAST KANSAS

CITY           SKY/WX    TMP DP  RH WIND       PRES   REMARKS
CHANUTE        CLOUDY    72  61  68 S10       30.04F
COFFEYVILLE    CLOUDY    73  61  65 S9        30.05F
HUTCHINSON     SUNNY     81  61  50 S10       30.02F
NEWTON         MOSUNNY   75  61  60 SW12      30.05F
PARSONS        CLOUDY    74  62  66 S8        30.06F
WICHITA INTL   MOSUNNY   79  62  56 SW12      30.02F
WICHITA JABRA  MOSUNNY   77  61  57 SW12      30.03F
WINFIELD       CLOUDY    76  62  62 S10       30.05F
$$

KSZ007>012-019>026-033>040-048>060-102>105-242000-
NORTHEAST KANSAS

CITY           SKY/WX    TMP DP  RH WIND       PRES   REMARKS
CONCORDIA      CLOUDY    76  61  59 SW10      29.97F
EMPORIA        CLOUDY    74  62  66 SW15      30.01F
LAWRENCE       CLOUDY    73  62  68 SW7       29.99F
MANHATTAN      CLOUDY    76  63  64 SW13      29.97F
OLATHE IND     CLOUDY    73  62  68 SW14      30.01F
OLATHE EXE     CLOUDY    73  63  70 SW9       30.00F
SALINA         CLOUDY    78  63  59 S13       29.98F
TOPEKA BILLARD CLOUDY    75  63  66 SW9       29.98F
TOPEKA FORBES  CLOUDY    74  62  66 SW13      29.98F
$$



USA.gov is the U.S. government's official web portal to all federal, state and local government web resources and services.